This demonstration page uses our WeatherBlox Daily Observations layout. Learn more.

36.17497, -115.13722

Hourly Observations for October 22, 2018

Temp ( °F °C ) Dew Point ( °F °C ) Humidity (%) Winds ( mph kmh ) Pressure ( in mb ) Visibility ( mi km ) Precip ( " mm )
12:53 am 00:53 Partly Cloudy 65 18.3 49 9.4 56 56 NNW 10 17 29.91 1013 10 16.09344 0 0
1:53 am 01:53 Mostly Cloudy 65 18.3 49 9.4 56 56 NNE 3 6 29.91 1013 10 16.09344 0 0
2:53 am 02:53 Mostly Cloudy 65 18.3 50 10 59 59 N 8 13 29.91 1013 10 16.09344 0 0
3:53 am 03:53 Clear 64 17.8 50 10 60 60 N 6 9 29.91 1013 10 16.09344 0 0
4:17 am 04:17 Mostly Clear with Nearby Thunderstorms 63 17.2 50 10 63 63 NNE 5 7 29.88 1012 10 16.09344 0 0
4:32 am 04:32 Mostly Clear 63 17.2 49 9.4 60 60 NW 5 7 29.85 1011 10 16.09344 0 0
4:53 am 04:53 Partly Cloudy 62 16.7 49 9.4 62 62 NW 6 9 29.91 1013 10 16.09344 0 0
5:53 am 05:53 Mostly Cloudy 58 14.4 51 10.6 78 78 WSW 7 11 29.94 1014 10 16.09344 0.001 0.001
6:53 am 06:53 Partly Cloudy 62 16.7 52 11.1 70 70 SE 5 7 29.94 1014 10 16.09344 0.001 0.001
7:53 am 07:53 Mostly Cloudy 63 17.2 50 10 63 63 Calm 30 1016 10 16.09344 0 0
8:53 am 08:53 Partly Cloudy 64 17.8 52 11.1 65 65 Calm 30 1016 10 16.09344 0 0
9:53 am 09:53 Sunny 69 20.6 49 9.4 49 49 NE 9 15 30 1016 10 16.09344 0 0
10:46 am 10:46 Sunny with Nearby Thunderstorms 70 21.1 48 8.9 46 46 E 7 11 29.91 1013 10 16.09344 0 0
10:53 am 10:53 Sunny with Nearby Thunderstorms 71 21.7 48 8.9 44 44 E 8 13 29.97 1015 10 16.09344 0 0
11:28 am 11:28 Sunny with Thunderstorms 70 21.1 52 11.1 53 53 ESE 14 22 29.88 1012 10 16.09344 0 0
11:53 am 11:53 Sunny 70 21.1 52 11.1 53 53 ESE 14 22 29.97 1015 10 16.09344 0 0
12:11 pm 12:11 Sunny with Nearby Thunderstorms 71 21.7 52 11.1 51 51 E 12 19 29.88 1012 10 16.09344 0 0
12:26 pm 12:26 Sunny 71 21.7 51 10.6 49 49 ESE 8 13 29.88 1012 10 16.09344 0 0
12:53 pm 12:53 Sunny with Nearby Thunderstorms 71 21.7 50 10 47 47 ESE 7 11 29.94 1014 10 16.09344 0 0
1:12 pm 13:12 Sunny 72 22.2 50 10 46 46 SSE 8 13 29.85 1011 10 16.09344 0 0
1:20 pm 13:20 Sunny with Thunderstorms 72 22.2 50 10 46 46 SE 7 11 29.85 1011 10 16.09344 0 0
1:31 pm 13:31 Sunny 72 22.2 50 10 46 46 ESE 12 19 29.85 1011 10 16.09344 0 0
1:53 pm 13:53 Sunny with Nearby Thunderstorms 73 22.8 49 9.4 43 43 ESE 10 17 29.91 1013 10 16.09344 0 0
2:07 pm 14:07 Sunny 73 22.8 48 8.9 41 41 SE 12 19 29.85 1011 10 16.09344 0 0
2:53 pm 14:53 Sunny 73 22.8 47 8.3 40 40 E 9 15 29.91 1013 10 16.09344 0 0
3:53 pm 15:53 Sunny 74 23.3 47 8.3 38 38 E 8 13 29.91 1013 10 16.09344 0 0
4:53 pm 16:53 Sunny 73 22.8 48 8.9 41 41 E 8 13 29.91 1013 10 16.09344 0 0
5:53 pm 17:53 Sunny 71 21.7 48 8.9 44 44 ESE 8 13 29.91 1013 10 16.09344 0 0
6:53 pm 18:53 Clear 70 21.1 47 8.3 44 44 ESE 6 9 29.91 1013 10 16.09344 0 0
7:53 pm 19:53 Clear 68 20 46 7.8 45 45 E 3 6 29.94 1014 10 16.09344 0 0
8:53 pm 20:53 Clear 67 19.4 47 8.3 49 49 W 5 7 29.94 1014 10 16.09344 0 0
9:53 pm 21:53 Clear 67 19.4 47 8.3 49 49 WSW 3 6 29.94 1014 10 16.09344 0 0
10:53 pm 22:53 Clear 65 18.3 49 9.4 56 56 W 6 9 29.94 1014 10 16.09344 0 0
11:53 pm 23:53 Clear 63 17.2 49 9.4 60 60 Calm 29.97 1015 10 16.09344 0 0

Powered by AerisWeather